Location: Unspecified
(38.4385°N, 0.0000°E)
Time: 09:38:07
(UTC+00:00)

SL-24 R/B - Visible Passes

Search period start: 04 April 2026 00:00
Search period end: 14 April 2026 00:00
Orbit: 677 x 1190 km, 98.2° (Epoch: 29 March)

Date Brightness Start Highest point End Pass type
(mag) Time Alt. Az. Time Alt. Az. Time Alt. Az.
4 Apr 6.4 02:50:56 10° NNE 02:55:22 34° E 02:56:34 30° SE visible
4 Apr 6.1 04:33:50 10° NNW 04:37:45 25° WNW 04:40:20 17° WSW visible
5 Apr 5.9 03:03:05 10° NNE 03:07:49 45° E 03:09:20 36° SE visible
5 Apr 6.4 04:46:39 10° NNW 04:50:05 19° WNW 04:53:07 12° WSW visible
6 Apr 5.4 03:15:21 10° NNE 03:20:14 61° ESE 03:22:07 38° SSE visible
6 Apr 6.7 04:59:40 10° NNW 05:02:23 15° WNW 05:05:15 10° W visible
7 Apr 5.1 03:27:40 10° NNE 03:32:40 82° ESE 03:34:54 37° S visible
8 Apr 7.8 02:00:45 10° ENE 02:02:17 11° E 02:03:52 10° ESE visible
8 Apr 5.0 03:40:04 10° N 03:45:04 77° WNW 03:47:41 32° SSW visible
9 Apr 7.5 02:11:43 10° ENE 02:14:48 16° E 02:16:42 13° ESE visible
9 Apr 5.2 03:52:31 10° N 03:57:28 58° WNW 04:00:29 26° SW visible
10 Apr 7.2 02:23:23 10° NE 02:27:19 21° E 02:29:30 17° SE visible
10 Apr 5.5 04:05:02 10° N 04:09:52 45° WNW 04:13:16 21° SW visible
11 Apr 6.9 02:35:19 10° NE 02:39:47 28° E 02:42:17 21° SE visible
11 Apr 5.9 04:17:37 10° N 04:22:15 35° WNW 04:26:03 16° SW visible
12 Apr 6.5 02:47:23 10° NNE 02:52:15 37° E 02:55:05 23° SSE visible
12 Apr 6.2 04:30:16 10° NNW 04:34:36 27° WNW 04:38:51 12° WSW visible
13 Apr 6.0 02:59:34 10° NNE 03:04:43 48° E 03:07:52 25° SSE visible
13 Apr 6.5 04:43:02 10° NNW 04:46:57 21° WNW 04:51:11 10° WSW visible
